{"data":{"norad_id":66802,"intl_designator":"2025-278M","name":"STARLINK-35604","alt_names":[],"object_type":"PAYLOAD","status":"ACTIVE","operator":null,"country":"US","launch_date":"2025-12-01","launch_site_code":"AFETR","launch_vehicle":null,"mission":null,"orbit_class":"UNKNOWN","rcs_meters":null,"size_class":null,"mass_kg":null,"dimensions":null,"purposes":["comms"],"wikipedia_slug":null,"has_3d_model":false,"image_url":null,"decayed_at":null,"tle_current":{"epoch":"2026-09-20T06:10:24.007584Z","epoch_age_seconds":107482,"freshness":"FRESH","line1":"1 66802U 25278M   26263.25722231  .00012719  00000+0  47097-3 0  9998","line2":"2 66802  43.0017  95.7248 0000330 285.0222  75.0593 15.27577195 44962","mean_motion":15.27577195,"eccentricity":3.3e-5,"inclination_deg":43.0017,"raan_deg":95.7248,"arg_perigee_deg":285.0222,"mean_anomaly_deg":75.0593,"bstar":0.00047097,"rev_number":4496,"period_min":94.266921810128,"perigee_km":482.83107581326,"apogee_km":483.28391464994,"semimajor_km":6861.1944952316,"source":"CELESTRAK","updated_at":"2026-09-21T09:00:36.015594Z"}}}